{"data":{"norad_id":55360,"epoch":"2026-09-20T14:24:49.025952Z","epoch_age_seconds":87921,"freshness":"FRESH","line1":"1 55360U 23013AF  26263.60056743  .00001191  00000+0  52782-4 0  9997","line2":"2 55360  43.0022 300.6593 0000943 281.4327  78.6419 15.27578459201271","mean_motion":15.27578459,"eccentricity":9.43e-5,"inclination_deg":43.0022,"raan_deg":300.6593,"arg_perigee_deg":281.4327,"mean_anomaly_deg":78.6419,"bstar":5.2782e-5,"rev_number":20127,"period_min":94.266843808643,"perigee_km":482.40670006792,"apogee_km":483.70072063589,"semimajor_km":6861.1907103519,"source":"CELESTRAK","updated_at":"2026-09-21T09:00:33.206906Z"}}